Tracking 18951 objects as of 21-Jan-2018
HD Live streaming from Space Station
objects crossing your sky now

FENGYUN 1C DEB

Track FENGYUN 1C DEB now!
10-day predictions


NORAD ID: 30994
Int'l Code: 1999-025BCL
Perigee: 851.5 km
Apogee: 878.9 km
Inclination: 98.9 °
Period: 102.1 minutes
Semi major axis: 7236 km
RCS: 0.0074 m2 (small)
Launch date: May 10, 1999
Source: People's Republic of China (PRC)
Launch site: Taiyaun Space Center, China (TSC)

Note: This is SATELLITE DEBRIS
aabbcc
Your satellite tracking list
Your tracking list is empty




NASA's NSSDC Master Catalog

Two Line Element Set (TLE):
1 30994U 99025BCL 18020.36911258 +.00000048 +00000-0 +52116-4 0  9997
2 30994 098.9464 049.3505 0018951 057.8810 058.8269 14.10382734559297
Source of the keplerian elements: AFSPC